| time (UTC) | temp C | wind direction | speed KPH | gust KPH | rain 1hr cm | rain 24hr cm | rain mn cm | humidity % | barometer mb |
| 20260507042710 | 17 | 113 | 4.8 | 17.7 | 0.00 | 0.00 | 0.00 | 81 | 1009.1 |
| 20260507042209 | 18 | 90 | 9.7 | 17.7 | 0.00 | 0.00 | 0.00 | 81 | 1008.9 |
| 20260507041210 | 18 | 90 | 6.4 | 17.7 | 0.00 | 0.00 | 0.00 | 80 | 1009.2 |
| 20260507040709 | 18 | 45 | 8.0 | 17.7 | 0.00 | 0.00 | 0.00 | 80 | 1009.2 |
| 20260507040210 | 18 | 90 | 9.7 | 17.7 | 0.00 | 0.00 | 0.00 | 80 | 1009.0 |
| 20260507035709 | 18 | 68 | 12.9 | 14.5 | 0.00 | 0.00 | 0.00 | 80 | 1009.2 |
| 20260507035210 | 18 | 90 | 11.3 | 17.7 | 0.00 | 0.00 | 0.00 | 81 | 1009.3 |
| 20260507034710 | 18 | 68 | 9.7 | 17.7 | 0.00 | 0.00 | 0.00 | 81 | 1009.5 |
| 20260507034209 | 18 | 90 | 6.4 | 17.7 | 0.00 | 0.00 | 0.00 | 80 | 1009.3 |
| 20260507033710 | 18 | 68 | 6.4 | 17.7 | 0.00 | 0.00 | 0.00 | 80 | 1009.5 |
| 20260507033209 | 18 | 68 | 12.9 | 17.7 | 0.00 | 0.00 | 0.00 | 80 | 1009.1 |
| 20260507032710 | 18 | 68 | 11.3 | 17.7 | 0.00 | 0.00 | 0.00 | 80 | 1009.2 |
| 20260507032210 | 17 | 90 | 12.9 | 17.7 | 0.00 | 0.00 | 0.00 | 80 | 1008.9 |
| 20260507031209 | 18 | 90 | 9.7 | 14.5 | 0.00 | 0.00 | 0.00 | 80 | 1009.0 |
| 20260507030709 | 18 | 90 | 11.3 | 14.5 | 0.00 | 0.00 | 0.00 | 80 | 1009.1 |
| 20260507025709 | 18 | 90 | 6.4 | 17.7 | 0.00 | 0.00 | 0.00 | 80 | 1009.3 |
| 20260507025209 | 18 | 113 | 9.7 | 17.7 | 0.00 | 0.00 | 0.00 | 79 | 1009.3 |
| 20260507024710 | 18 | 68 | 11.3 | 17.7 | 0.00 | 0.00 | 0.00 | 79 | 1009.2 |
| 20260507024209 | 18 | 45 | 6.4 | 17.7 | 0.00 | 0.00 | 0.00 | 80 | 1009.5 |
| 20260507023709 | 18 | 68 | 9.7 | 17.7 | 0.00 | 0.00 | 0.00 | 80 | 1009.4 |
| 20260507023209 | 18 | 68 | 9.7 | 14.5 | 0.00 | 0.00 | 0.00 | 80 | 1009.5 |
| 20260507022709 | 18 | 45 | 9.7 | 12.9 | 0.00 | 0.00 | 0.00 | 80 | 1009.4 |
| 20260507021709 | 18 | 68 | 6.4 | 14.5 | 0.00 | 0.00 | 0.00 | 80 | 1009.8 |
| 20260507021209 | 18 | 68 | 6.4 | 17.7 | 0.00 | 0.00 | 0.00 | 80 | 1009.6 |
| 20260507020709 | 18 | 68 | 6.4 | 17.7 | 0.00 | 0.00 | 0.00 | 79 | 1009.7 |
| 20260507015210 | 18 | 68 | 8.0 | 0.0 | 0.00 | 0.00 | 0.00 | 80 | 1009.6 |
| 20260507011710 | 18 | 68 | 6.4 | 12.9 | 0.00 | 0.00 | 0.00 | 79 | 1010.3 |
| 20260507011210 | 18 | 68 | 6.4 | 12.9 | 0.00 | 0.00 | 0.00 | 79 | 1010.2 |
| 20260507010710 | 18 | 68 | 6.4 | 12.9 | 0.00 | 0.00 | 0.00 | 79 | 1010.2 |
| 20260507010210 | 18 | 68 | 6.4 | 12.9 | 0.00 | 0.00 | 0.00 | 78 | 1010.3 |
| 20260507005710 | 18 | 90 | 6.4 | 14.5 | 0.00 | 0.00 | 0.00 | 78 | 1010.4 |
| 20260507005209 | 18 | 68 | 6.4 | 14.5 | 0.00 | 0.00 | 0.00 | 79 | 1010.5 |
| 20260507004709 | 18 | 90 | 8.0 | 14.5 | 0.00 | 0.00 | 0.00 | 80 | 1010.2 |
| 20260507004209 | 18 | 45 | 6.4 | 14.5 | 0.00 | 0.00 | 0.00 | 80 | 1010.3 |
| 20260507003709 | 18 | 45 | 8.0 | 14.5 | 0.00 | 0.00 | 0.00 | 80 | 1010.2 |
| 20260507003209 | 18 | 68 | 8.0 | 14.5 | 0.00 | 0.00 | 0.00 | 80 | 1010.2 |
| 20260507002209 | 18 | 68 | 8.0 | 11.3 | 0.00 | 0.00 | 0.00 | 80 | 1009.9 |
| 20260507001209 | 17 | 68 | 6.4 | 9.7 | 0.00 | 0.00 | 0.00 | 81 | 1010.2 |
| 20260507000710 | 17 | 45 | 6.4 | 9.7 | 0.00 | 0.00 | 0.00 | 81 | 1010.2 |
| 20260506235710 | 17 | 45 | 3.2 | 6.4 | 0.00 | 0.00 | 0.00 | 81 | 1010.0 |
| 20260506235209 | 17 | 68 | 4.8 | 0.0 | 0.00 | 0.00 | 0.00 | 82 | 1010.2 |
| 20260506231209 | 15 | 270 | 0.0 | 0.0 | 0.00 | 0.00 | 0.00 | 82 | 1010.4 |
| 20260506230709 | 15 | 270 | 0.0 | 3.2 | 0.00 | 0.00 | 0.00 | 82 | 1010.4 |
| 20260506230210 | 15 | 270 | 0.0 | 3.2 | 0.00 | 0.00 | 0.00 | 82 | 1010.5 |
| 20260506225709 | 15 | 270 | 0.0 | 3.2 | 0.00 | 0.00 | 0.00 | 82 | 1010.7 |
| 20260506225209 | 16 | 180 | 0.0 | 3.2 | 0.00 | 0.00 | 0.00 | 81 | 1010.7 |
| 20260506224709 | 16 | 180 | 0.0 | 3.2 | 0.00 | 0.00 | 0.00 | 81 | 1010.5 |
| 20260506224209 | 16 | 180 | 1.6 | 3.2 | 0.00 | 0.00 | 0.00 | 81 | 1010.6 |
| 20260506223709 | 16 | 203 | 1.6 | 3.2 | 0.00 | 0.00 | 0.00 | 81 | 1010.5 |
| 20260506223210 | 16 | 180 | 1.6 | 3.2 | 0.00 | 0.00 | 0.00 | 81 | 1010.3 |
| 20260506222709 | 16 | 158 | 1.6 | 3.2 | 0.00 | 0.00 | 0.00 | 81 | 1010.6 |
| 20260506222209 | 17 | 135 | 0.0 | 3.2 | 0.00 | 0.00 | 0.00 | 81 | 1010.3 |
| 20260506221709 | 17 | 158 | 0.0 | 3.2 | 0.00 | 0.00 | 0.00 | 81 | 1010.4 |
| 20260506220709 | 17 | 158 | 0.0 | 3.2 | 0.00 | 0.00 | 0.00 | 80 | 1010.5 |
| 20260506220209 | 17 | 135 | 0.0 | 3.2 | 0.00 | 0.00 | 0.00 | 80 | 1010.3 |
| 20260506215709 | 17 | 113 | 1.6 | 3.2 | 0.00 | 0.00 | 0.00 | 80 | 1010.5 |
| 20260506215209 | 17 | 90 | 0.0 | 3.2 | 0.00 | 0.00 | 0.00 | 79 | 1010.6 |
| 20260506214709 | 17 | 113 | 1.6 | 3.2 | 0.00 | 0.00 | 0.00 | 79 | 1010.7 |
| 20260506214209 | 17 | 90 | 1.6 | 3.2 | 0.00 | 0.00 | 0.00 | 79 | 1010.7 |
| 20260506213709 | 17 | 113 | 0.0 | 3.2 | 0.00 | 0.00 | 0.00 | 79 | 1010.9 |
| 20260506212709 | 16 | 203 | 0.0 | 3.2 | 0.00 | 0.00 | 0.00 | 79 | 1011.0 |
| 20260506211709 | 17 | 225 | 1.6 | 3.2 | 0.00 | 0.00 | 0.00 | 79 | 1011.4 |
| 20260506211209 | 17 | 158 | 0.0 | 3.2 | 0.00 | 0.00 | 0.00 | 79 | 1011.1 |
| 20260506210710 | 17 | 158 | 0.0 | 3.2 | 0.00 | 0.00 | 0.00 | 78 | 1010.9 |
| 20260506205710 | 17 | 135 | 1.6 | 6.4 | 0.00 | 0.00 | 0.00 | 78 | 1010.9 |
| 20260506204710 | 17 | 113 | 0.0 | 3.2 | 0.00 | 0.00 | 0.00 | 78 | 1010.9 |
| 20260506204210 | 17 | 158 | 1.6 | 3.2 | 0.00 | 0.00 | 0.00 | 79 | 1010.8 |
| 20260506203710 | 17 | 158 | 0.0 | 3.2 | 0.00 | 0.00 | 0.00 | 79 | 1010.8 |
| 20260506203209 | 17 | 135 | 1.6 | 3.2 | 0.00 | 0.00 | 0.00 | 78 | 1010.8 |
| 20260506202709 | 17 | 135 | 1.6 | 6.4 | 0.00 | 0.00 | 0.00 | 78 | 1010.8 |
| 20260506201710 | 17 | 135 | 1.6 | 6.4 | 0.00 | 0.00 | 0.00 | 78 | 1010.8 |
| 20260506201210 | 17 | 135 | 3.2 | 6.4 | 0.00 | 0.00 | 0.00 | 78 | 1010.6 |
| 20260506200710 | 17 | 135 | 3.2 | 9.7 | 0.00 | 0.00 | 0.00 | 77 | 1010.7 |
| 20260506200209 | 17 | 90 | 0.0 | 9.7 | 0.00 | 0.00 | 0.00 | 77 | 1010.5 |
| 20260506195709 | 17 | 158 | 3.2 | 9.7 | 0.00 | 0.00 | 0.00 | 77 | 1010.2 |
| 20260506195209 | 17 | 113 | 3.2 | 6.4 | 0.00 | 0.00 | 0.00 | 78 | 1010.2 |
| 20260506194210 | 17 | 135 | 3.2 | 6.4 | 0.00 | 0.00 | 0.00 | 78 | 1010.2 |
| 20260506193710 | 17 | 90 | 3.2 | 11.3 | 0.00 | 0.00 | 0.00 | 77 | 1010.3 |
| 20260506193209 | 17 | 90 | 3.2 | 11.3 | 0.00 | 0.00 | 0.00 | 78 | 1010.1 |
| 20260506192210 | 17 | 135 | 1.6 | 9.7 | 0.00 | 0.00 | 0.00 | 77 | 1009.9 |
| 20260506191710 | 17 | 113 | 3.2 | 12.9 | 0.00 | 0.00 | 0.00 | 78 | 1009.7 |
| 20260506191210 | 17 | 135 | 3.2 | 12.9 | 0.00 | 0.00 | 0.00 | 77 | 1009.7 |
| 20260506190710 | 17 | 90 | 3.2 | 12.9 | 0.00 | 0.00 | 0.00 | 77 | 1009.8 |
| 20260506185710 | 17 | 90 | 3.2 | 14.5 | 0.00 | 0.00 | 0.00 | 77 | 1010.0 |
| 20260506185209 | 18 | 135 | 6.4 | 14.5 | 0.00 | 0.00 | 0.00 | 76 | 1009.9 |
| 20260506184709 | 18 | 90 | 3.2 | 14.5 | 0.00 | 0.00 | 0.00 | 76 | 1009.5 |
| 20260506184209 | 18 | 90 | 8.0 | 12.9 | 0.00 | 0.00 | 0.00 | 76 | 1009.8 |
| 20260506183709 | 18 | 113 | 4.8 | 17.7 | 0.00 | 0.00 | 0.00 | 76 | 1009.6 |
| 20260506183209 | 18 | 68 | 4.8 | 17.7 | 0.00 | 0.00 | 0.00 | 75 | 1009.5 |
| 20260506182709 | 18 | 113 | 3.2 | 17.7 | 0.00 | 0.00 | 0.00 | 75 | 1009.3 |
| 20260506181710 | 18 | 90 | 8.0 | 12.9 | 0.00 | 0.00 | 0.00 | 75 | 1009.4 |
| 20260506180210 | 18 | 113 | 4.8 | 17.7 | 0.00 | 0.00 | 0.00 | 75 | 1009.4 |
| 20260506175710 | 18 | 68 | 11.3 | 17.7 | 0.00 | 0.00 | 0.00 | 75 | 1009.4 |
| 20260506175210 | 18 | 113 | 4.8 | 14.5 | 0.00 | 0.00 | 0.00 | 75 | 1009.2 |
| 20260506174210 | 18 | 90 | 6.4 | 17.7 | 0.00 | 0.00 | 0.00 | 75 | 1009.3 |
| 20260506173709 | 18 | 135 | 8.0 | 17.7 | 0.00 | 0.00 | 0.00 | 75 | 1009.3 |
| 20260506173209 | 18 | 113 | 9.7 | 17.7 | 0.00 | 0.00 | 0.00 | 74 | 1009.4 |
| 20260506172709 | 18 | 90 | 8.0 | 17.7 | 0.00 | 0.00 | 0.00 | 74 | 1009.5 |
| 20260506171709 | 18 | 90 | 6.4 | 17.7 | 0.00 | 0.00 | 0.00 | 75 | 1009.2 |
| 20260506171210 | 18 | 90 | 6.4 | 17.7 | 0.00 | 0.00 | 0.00 | 75 | 1009.2 |
| 20260506170709 | 18 | 90 | 12.9 | 22.5 | 0.00 | 0.00 | 0.00 | 75 | 1009.2 |
| 20260506165709 | 18 | 113 | 11.3 | 22.5 | 0.00 | 0.00 | 0.00 | 75 | 1009.5 |
| 20260506165209 | 19 | 90 | 9.7 | 22.5 | 0.00 | 0.00 | 0.00 | 75 | 1009.4 |
| 20260506164709 | 19 | 90 | 12.9 | 22.5 | 0.00 | 0.00 | 0.00 | 75 | 1009.4 |
| 20260506164209 | 19 | 90 | 9.7 | 22.5 | 0.00 | 0.00 | 0.00 | 74 | 1009.3 |
| 20260506163709 | 18 | 90 | 12.9 | 22.5 | 0.00 | 0.00 | 0.00 | 74 | 1009.2 |
| 20260506163209 | 19 | 68 | 11.3 | 22.5 | 0.00 | 0.00 | 0.00 | 74 | 1009.3 |
| 20260506162210 | 19 | 68 | 12.9 | 22.5 | 0.00 | 0.00 | 0.00 | 73 | 1009.5 |
| 20260506161709 | 19 | 90 | 12.9 | 22.5 | 0.00 | 0.00 | 0.00 | 74 | 1009.3 |
| 20260506160710 | 19 | 68 | 12.9 | 24.1 | 0.00 | 0.00 | 0.00 | 73 | 1009.3 |
| 20260506160209 | 19 | 90 | 12.9 | 24.1 | 0.00 | 0.00 | 0.00 | 73 | 1009.3 |
| 20260506155709 | 19 | 135 | 12.9 | 24.1 | 0.00 | 0.00 | 0.00 | 74 | 1009.4 |
| 20260506155209 | 19 | 90 | 12.9 | 24.1 | 0.00 | 0.00 | 0.00 | 74 | 1009.6 |
| 20260506154709 | 19 | 90 | 14.5 | 24.1 | 0.00 | 0.00 | 0.00 | 75 | 1009.4 |
| 20260506154209 | 19 | 113 | 16.1 | 22.5 | 0.00 | 0.00 | 0.00 | 75 | 1009.4 |
| 20260506153709 | 19 | 68 | 11.3 | 22.5 | 0.00 | 0.00 | 0.00 | 75 | 1009.5 |
| 20260506153210 | 19 | 68 | 12.9 | 22.5 | 0.00 | 0.00 | 0.00 | 75 | 1009.5 |
| 20260506152710 | 19 | 90 | 12.9 | 22.5 | 0.00 | 0.00 | 0.00 | 74 | 1009.4 |
| 20260506152210 | 20 | 113 | 12.9 | 22.5 | 0.00 | 0.00 | 0.00 | 75 | 1009.6 |
| 20260506151710 | 19 | 90 | 11.3 | 24.1 | 0.00 | 0.00 | 0.00 | 74 | 1009.4 |
| 20260506151209 | 20 | 90 | 12.9 | 24.1 | 0.00 | 0.00 | 0.00 | 74 | 1009.4 |
| 20260506150209 | 20 | 90 | 14.5 | 25.7 | 0.00 | 0.00 | 0.00 | 73 | 1009.4 |
| 20260506145710 | 19 | 90 | 17.7 | 25.7 | 0.00 | 0.00 | 0.00 | 73 | 1009.4 |
| 20260506145210 | 20 | 68 | 12.9 | 24.1 | 0.00 | 0.00 | 0.00 | 72 | 1009.4 |
| 20260506144710 | 20 | 90 | 14.5 | 24.1 | 0.00 | 0.00 | 0.00 | 71 | 1009.2 |
| 20260506144210 | 20 | 90 | 12.9 | 24.1 | 0.00 | 0.00 | 0.00 | 72 | 1009.2 |
| 20260506143710 | 20 | 113 | 17.7 | 24.1 | 0.00 | 0.00 | 0.00 | 73 | 1009.2 |
| 20260506143209 | 20 | 45 | 16.1 | 24.1 | 0.00 | 0.00 | 0.00 | 73 | 1009.3 |
| 20260506142709 | 20 | 68 | 11.3 | 24.1 | 0.00 | 0.00 | 0.00 | 71 | 1009.4 |
| 20260506142209 | 20 | 90 | 14.5 | 24.1 | 0.00 | 0.00 | 0.00 | 72 | 1009.4 |
| 20260506141210 | 20 | 90 | 12.9 | 24.1 | 0.00 | 0.00 | 0.00 | 72 | 1009.5 |
| 20260506140710 | 20 | 90 | 12.9 | 24.1 | 0.00 | 0.00 | 0.00 | 70 | 1009.4 |
| 20260506140209 | 21 | 68 | 11.3 | 24.1 | 0.00 | 0.00 | 0.00 | 71 | 1009.4 |
| 20260506135709 | 20 | 68 | 12.9 | 24.1 | 0.00 | 0.00 | 0.00 | 71 | 1009.8 |
| 20260506135209 | 20 | 68 | 12.9 | 22.5 | 0.00 | 0.00 | 0.00 | 70 | 1009.5 |
| 20260506134709 | 20 | 113 | 14.5 | 22.5 | 0.00 | 0.00 | 0.00 | 72 | 1009.7 |
| 20260506134209 | 20 | 68 | 12.9 | 22.5 | 0.00 | 0.00 | 0.00 | 72 | 1009.6 |
| 20260506133709 | 20 | 68 | 12.9 | 22.5 | 0.00 | 0.00 | 0.00 | 71 | 1009.6 |
| 20260506132710 | 20 | 90 | 14.5 | 20.9 | 0.00 | 0.00 | 0.00 | 71 | 1009.8 |
| 20260506132210 | 21 | 113 | 11.3 | 20.9 | 0.00 | 0.00 | 0.00 | 70 | 1010.0 |
| 20260506131710 | 21 | 90 | 12.9 | 20.9 | 0.00 | 0.00 | 0.00 | 68 | 1009.8 |
| 20260506131210 | 21 | 68 | 12.9 | 22.5 | 0.00 | 0.00 | 0.00 | 69 | 1009.9 |
| 20260506130710 | 20 | 90 | 12.9 | 22.5 | 0.00 | 0.00 | 0.00 | 69 | 1009.8 |
| 20260506130210 | 20 | 45 | 12.9 | 20.9 | 0.00 | 0.00 | 0.00 | 70 | 1010.0 |
| 20260506125710 | 21 | 23 | 11.3 | 20.9 | 0.00 | 0.00 | 0.00 | 70 | 1010.1 |
| 20260506125210 | 21 | 68 | 12.9 | 24.1 | 0.00 | 0.00 | 0.00 | 69 | 1009.9 |
| 20260506124710 | 21 | 68 | 11.3 | 24.1 | 0.00 | 0.00 | 0.00 | 69 | 1010.1 |
| 20260506123210 | 20 | 68 | 14.5 | 20.9 | 0.00 | 0.00 | 0.00 | 72 | 1010.1 |
| 20260506122709 | 21 | 45 | 12.9 | 22.5 | 0.00 | 0.00 | 0.00 | 71 | 1009.9 |
| 20260506122209 | 21 | 113 | 12.9 | 22.5 | 0.00 | 0.00 | 0.00 | 71 | 1010.1 |
| 20260506121709 | 20 | 68 | 11.3 | 22.5 | 0.00 | 0.00 | 0.00 | 71 | 1010.2 |
| 20260506121209 | 21 | 68 | 12.9 | 22.5 | 0.00 | 0.00 | 0.00 | 70 | 1010.4 |
| 20260506120709 | 20 | 113 | 12.9 | 22.5 | 0.00 | 0.00 | 0.00 | 71 | 1010.5 |
| 20260506120209 | 21 | 90 | 9.7 | 20.9 | 0.00 | 0.00 | 0.00 | 72 | 1010.4 |
| 20260506115209 | 21 | 113 | 12.9 | 24.1 | 0.00 | 0.00 | 0.00 | 72 | 1010.4 |
| 20260506114209 | 20 | 68 | 11.3 | 20.9 | 0.00 | 0.00 | 0.00 | 74 | 1010.5 |
| 20260506113709 | 20 | 68 | 12.9 | 20.9 | 0.00 | 0.00 | 0.00 | 75 | 1010.4 |
| 20260506113209 | 20 | 68 | 12.9 | 20.9 | 0.00 | 0.00 | 0.00 | 73 | 1010.4 |
| 20260506112709 | 21 | 45 | 11.3 | 20.9 | 0.00 | 0.00 | 0.00 | 70 | 1010.5 |
| 20260506112209 | 21 | 45 | 9.7 | 20.9 | 0.00 | 0.00 | 0.00 | 70 | 1010.5 |
| 20260506111710 | 21 | 45 | 9.7 | 20.9 | 0.00 | 0.00 | 0.00 | 70 | 1010.5 |
| 20260506110709 | 21 | 68 | 8.0 | 25.7 | 0.00 | 0.00 | 0.00 | 72 | 1010.3 |
| 20260506110210 | 21 | 90 | 9.7 | 25.7 | 0.00 | 0.00 | 0.00 | 73 | 1010.5 |
| 20260506105710 | 21 | 68 | 12.9 | 22.5 | 0.00 | 0.00 | 0.00 | 72 | 1010.3 |
| 20260506105210 | 21 | 90 | 14.5 | 24.1 | 0.00 | 0.00 | 0.00 | 73 | 1010.4 |
| 20260506104710 | 21 | 68 | 11.3 | 24.1 | 0.00 | 0.00 | 0.00 | 74 | 1010.6 |
| 20260506104209 | 21 | 68 | 14.5 | 25.7 | 0.00 | 0.00 | 0.00 | 73 | 1010.6 |
| 20260506103709 | 21 | 68 | 14.5 | 25.7 | 0.00 | 0.00 | 0.00 | 74 | 1010.6 |
| 20260506103210 | 20 | 90 | 16.1 | 27.4 | 0.00 | 0.00 | 0.00 | 75 | 1010.6 |
| 20260506102710 | 21 | 68 | 14.5 | 27.4 | 0.00 | 0.00 | 0.00 | 76 | 1010.4 |
| 20260506102210 | 21 | 68 | 12.9 | 27.4 | 0.00 | 0.00 | 0.00 | 76 | 1010.6 |
| 20260506101710 | 20 | 45 | 17.7 | 27.4 | 0.00 | 0.00 | 0.00 | 76 | 1010.4 |
| 20260506100710 | 20 | 23 | 12.9 | 29.0 | 0.00 | 0.00 | 0.00 | 77 | 1010.3 |
| 20260506095710 | 20 | 45 | 14.5 | 29.0 | 0.00 | 0.00 | 0.00 | 77 | 1010.6 |
| 20260506095210 | 19 | 68 | 16.1 | 25.7 | 0.00 | 0.00 | 0.00 | 77 | 1010.5 |
| 20260506093710 | 20 | 45 | 12.9 | 25.7 | 0.00 | 0.00 | 0.00 | 76 | 1010.6 |
| 20260506092709 | 20 | 45 | 14.5 | 25.7 | 0.00 | 0.00 | 0.00 | 75 | 1010.5 |
| 20260506092209 | 20 | 45 | 14.5 | 25.7 | 0.00 | 0.00 | 0.00 | 74 | 1010.5 |
| 20260506091709 | 20 | 68 | 12.9 | 25.7 | 0.00 | 0.00 | 0.00 | 74 | 1010.3 |
| 20260506091209 | 20 | 68 | 14.5 | 24.1 | 0.00 | 0.00 | 0.00 | 74 | 1010.2 |
| 20260506090709 | 20 | 45 | 12.9 | 24.1 | 0.00 | 0.00 | 0.00 | 75 | 1010.2 |
| 20260506090210 | 20 | 68 | 12.9 | 24.1 | 0.00 | 0.00 | 0.00 | 75 | 1010.0 |
| 20260506085709 | 20 | 68 | 11.3 | 24.1 | 0.00 | 0.00 | 0.00 | 76 | 1010.0 |
| 20260506085210 | 20 | 45 | 17.7 | 24.1 | 0.00 | 0.00 | 0.00 | 76 | 1009.9 |
| 20260506084710 | 20 | 23 | 14.5 | 24.1 | 0.00 | 0.00 | 0.00 | 77 | 1010.0 |
| 20260506084210 | 20 | 45 | 16.1 | 24.1 | 0.00 | 0.00 | 0.00 | 78 | 1009.9 |
| 20260506083710 | 19 | 45 | 17.7 | 22.5 | 0.00 | 0.00 | 0.00 | 77 | 1010.0 |
| 20260506082710 | 20 | 68 | 12.9 | 22.5 | 0.00 | 0.00 | 0.00 | 76 | 1010.0 |
| 20260506081710 | 19 | 45 | 12.9 | 22.5 | 0.00 | 0.00 | 0.00 | 77 | 1010.1 |
| 20260506081210 | 20 | 23 | 11.3 | 17.7 | 0.00 | 0.00 | 0.00 | 76 | 1009.8 |
| 20260506080710 | 20 | 45 | 9.7 | 17.7 | 0.00 | 0.00 | 0.00 | 75 | 1010.0 |
| 20260506080209 | 20 | 45 | 12.9 | 17.7 | 0.00 | 0.00 | 0.00 | 74 | 1009.8 |
| 20260506072709 | 20 | 68 | 9.7 | 17.7 | 0.00 | 0.00 | 0.00 | 75 | 1010.1 |
| 20260506072209 | 20 | 68 | 8.0 | 17.7 | 0.00 | 0.00 | 0.00 | 74 | 1010.1 |
| 20260506071709 | 20 | 68 | 8.0 | 17.7 | 0.00 | 0.00 | 0.00 | 75 | 1010.1 |
| 20260506071209 | 19 | 90 | 6.4 | 17.7 | 0.00 | 0.00 | 0.00 | 76 | 1010.0 |
| 20260506070709 | 19 | 68 | 12.9 | 17.7 | 0.00 | 0.00 | 0.00 | 76 | 1010.2 |
| 20260506070210 | 19 | 68 | 6.4 | 17.7 | 0.00 | 0.00 | 0.00 | 76 | 1010.1 |
| 20260506062210 | 18 | 68 | 11.3 | 20.9 | 0.00 | 0.00 | 0.00 | 79 | 1009.8 |
| 20260506061710 | 18 | 45 | 12.9 | 17.7 | 0.00 | 0.00 | 0.00 | 79 | 1009.9 |
| 20260506060710 | 18 | 45 | 11.3 | 20.9 | 0.00 | 0.00 | 0.00 | 79 | 1009.9 |
| 20260506060209 | 18 | 45 | 8.0 | 20.9 | 0.00 | 0.00 | 0.00 | 80 | 1009.9 |
| 20260506050710 | 17 | 45 | 12.9 | 17.7 | 0.00 | 0.00 | 0.00 | 86 | 1009.3 |
| 20260506050210 | 17 | 45 | 11.3 | 17.7 | 0.00 | 0.00 | 0.00 | 86 | 1009.2 |
| 20260506044709 | 17 | 45 | 8.0 | 3.2 | 0.00 | 0.00 | 0.00 | 88 | 1008.6 |
| 20260506044210 | 13 | 225 | 0.0 | 3.2 | 0.00 | 0.00 | 0.00 | 87 | 1008.8 |
| 20260506043710 | 14 | 158 | 0.0 | 3.2 | 0.00 | 0.00 | 0.00 | 87 | 1008.8 |
| 20260506043209 | 13 | 225 | 0.0 | 6.4 | 0.00 | 0.00 | 0.00 | 87 | 1008.9 |